START_TIME,STEP,MOV.,M15,t_acc.,M20,t_acc.
1979-08-07 18:00:42.380 ,0,1,0.,24.0,0.,24.0
1979-08-07 18:01:06.380 ,4,1,0.,24.0,0.,24.0
1979-08-07 18:01:30.380 ,7,1,1.,24.0,0.,24.0
1979-08-07 18:01:54.380 ,3,1,0.,24.0,0.,24.0
1979-08-07 18:02:18.380 ,0,1,0.,24.0,0.,24.0
1979-08-07 18:02:42.380 ,4,1,0.,24.0,0.,24.0
1979-08-07 18:03:06.380 ,7,1,0.,24.0,0.,24.0
1979-08-07 18:03:30.380 ,3,1,0.,24.0,0.,24.0
1979-08-07 18:03:54.380 ,0,1,0.,24.0,0.,24.0
1979-08-07 18:04:18.370 ,4,1,0.,24.0,0.,24.0
1979-08-07 18:04:42.370 ,7,1,0.,24.0,0.,24.0
1979-08-07 18:05:06.370 ,3,1,0.,24.0,0.,24.0
1979-08-07 18:05:30.370 ,0,1,0.,24.0,0.,24.0
1979-08-07 18:05:54.370 ,0,0,0.,24.0,0.,24.0
1979-08-07 18:06:18.370 ,0,0,0.,24.0,0.,24.0
1979-08-07 18:06:42.370 ,5,1,0.,24.0,0.,24.0
1979-08-07 18:07:06.370 ,5,0,0.,24.0,0.,24.0
1979-08-07 18:07:30.370 ,4,1,0.,24.0,0.,24.0
1979-08-07 18:07:54.370 ,4,0,0.,24.0,0.,24.0
1979-08-07 18:08:18.370 ,3,1,0.,24.0,0.,24.0
1979-08-07 18:08:42.370 ,3,0,0.,24.0,0.,24.0
1979-08-07 18:09:06.370 ,2,1,0.,24.0,0.,24.0
1979-08-07 18:09:30.370 ,2,0,0.,24.0,0.,24.0
1979-08-07 18:09:54.370 ,1,1,0.,24.0,0.,24.0
1979-08-07 18:10:18.370 ,1,0,0.,24.0,0.,24.0
1979-08-07 18:10:42.370 ,0,1,0.,24.0,0.,24.0
1979-08-07 18:11:06.370 ,0,0,0.,24.0,0.,24.0
1979-08-07 18:11:30.370 ,0,1,0.,24.0,0.,24.0
1979-08-07 18:11:54.370 ,0,0,0.,24.0,0.,24.0
1979-08-07 18:12:18.370 ,1,1,0.,24.0,0.,24.0
1979-08-07 18:12:42.370 ,1,0,0.,24.0,0.,24.0
1979-08-07 18:13:06.370 ,2,1,0.,24.0,0.,24.0
1979-08-07 18:13:30.370 ,2,0,0.,24.0,0.,24.0
1979-08-07 18:13:54.370 ,3,1,0.,24.0,0.,24.0
1979-08-07 18:14:18.370 ,3,0,0.,24.0,0.,24.0
1979-08-07 18:14:42.370 ,4,1,0.,24.0,0.,24.0
1979-08-07 18:15:06.370 ,4,0,0.,24.0,0.,24.0
1979-08-07 18:15:30.370 ,5,1,0.,24.0,0.,24.0
1979-08-07 18:15:54.370 ,5,0,0.,24.0,0.,24.0
1979-08-07 18:16:18.370 ,6,1,0.,24.0,0.,24.0
1979-08-07 18:16:42.370 ,6,0,0.,24.0,0.,24.0
1979-08-07 18:17:06.370 ,7,1,0.,24.0,0.,24.0
1979-08-07 18:17:30.370 ,7,0,0.,24.0,0.,24.0
1979-08-07 18:17:54.370 ,7,1,0.,24.0,0.,24.0
1979-08-07 18:18:18.370 ,7,0,0.,24.0,0.,24.0
1979-08-07 18:18:42.370 ,6,1,0.,24.0,0.,24.0
1979-08-07 18:19:06.370 ,6,0,0.,24.0,0.,24.0
1979-08-07 18:19:30.370 ,5,1,0.,24.0,0.,24.0
1979-08-07 18:19:54.370 ,0,0,0.,24.0,0.,24.0
1979-08-07 18:21:06.370 ,0,0,0.,24.0,0.,24.0
1979-08-07 18:21:30.370 ,0,0,0.,24.0,0.,24.0
1979-08-07 18:21:54.370 ,2,1,0.,24.0,0.,24.0
1979-08-07 18:22:18.370 ,2,0,0.,24.0,0.,24.0
1979-08-07 18:23:30.370 ,0,0,0.,24.0,0.,24.0
1979-08-07 18:23:54.370 ,0,0,0.,24.0,0.,24.0
1979-08-07 18:24:18.370 ,0,1,0.,24.0,0.,24.0
1979-08-07 18:24:42.370 ,0,0,0.,24.0,0.,24.0
1979-08-07 18:30:42.370 ,0,0,0.,24.0,0.,24.0
1979-08-07 18:31:06.370 ,0,0,0.,24.0,0.,24.0
1979-08-07 18:32:18.370 ,0,0,0.,24.0,0.,24.0
1979-08-07 18:32:42.370 ,0,0,0.,24.0,0.,24.0
1979-08-07 18:34:42.370 ,0,0,0.,24.0,0.,24.0
1979-08-07 18:35:06.370 ,0,0,0.,24.0,0.,24.0
1979-08-07 18:35:30.370 ,1,1,0.,24.0,0.,24.0
1979-08-07 18:35:54.370 ,1,0,0.,24.0,0.,24.0
1979-08-07 18:37:06.370 ,0,0,0.,24.0,0.,24.0
1979-08-07 18:37:30.370 ,0,0,0.,24.0,0.,24.0
1979-08-07 18:38:42.370 ,0,0,0.,24.0,0.,24.0
1979-08-07 18:39:06.370 ,0,0,0.,24.0,0.,24.0
1979-08-07 18:39:06.370 ,0,0,0.,24.0,0.,24.0
1979-08-07 18:46:42.370 ,0,0,0.,24.0,0.,24.0
1979-08-07 18:47:06.370 ,0,1,0.,24.0,0.,24.0
1979-08-07 18:47:30.370 ,4,1,0.,24.0,0.,24.0
1979-08-07 18:47:54.370 ,7,1,0.,24.0,0.,24.0
1979-08-07 18:51:30.370 ,0,0,0.,24.0,0.,24.0
1979-08-07 18:51:54.370 ,0,1,0.,24.0,0.,24.0
1979-08-07 18:52:18.370 ,4,1,0.,24.0,0.,24.0
1979-08-07 18:52:42.370 ,7,1,0.,24.0,0.,24.0
1979-08-07 18:53:06.370 ,3,1,0.,24.0,0.,24.0
1979-08-07 18:53:30.370 ,0,1,0.,24.0,0.,24.0
1979-08-07 18:53:54.370 ,0,0,0.,24.0,0.,24.0
1979-08-07 18:54:18.370 ,0,0,0.,24.0,0.,24.0
1979-08-07 18:54:42.370 ,5,1,0.,24.0,0.,24.0
1979-08-07 18:55:06.370 ,5,0,0.,24.0,0.,24.0
1979-08-07 18:55:30.370 ,4,1,0.,24.0,0.,24.0
1979-08-07 18:55:54.370 ,4,0,0.,24.0,0.,24.0
1979-08-07 18:56:18.370 ,3,1,0.,24.0,0.,24.0
1979-08-07 18:56:42.370 ,3,0,0.,24.0,0.,24.0
1979-08-07 18:57:06.370 ,2,1,0.,24.0,0.,24.0
1979-08-07 18:57:30.370 ,2,0,0.,24.0,0.,24.0
1979-08-07 18:57:54.370 ,1,1,0.,24.0,0.,24.0
1979-08-07 18:58:18.370 ,1,0,0.,24.0,0.,24.0
1979-08-07 18:58:42.370 ,0,1,0.,24.0,0.,24.0
1979-08-07 18:59:06.370 ,0,0,0.,24.0,0.,24.0
1979-08-07 18:59:30.370 ,0,1,0.,24.0,0.,24.0
1979-08-07 18:59:54.370 ,0,0,0.,24.0,0.,24.0
1979-08-07 19:02:42.370 ,0,0,0.,24.0,0.,24.0
1979-08-07 19:03:06.370 ,0,0,0.,24.0,0.,24.0
1979-08-07 19:07:30.370 ,0,0,0.,24.0,0.,24.0
1979-08-07 19:07:54.370 ,0,0,0.,24.0,0.,24.0
1979-08-07 19:07:54.370 ,0,0,0.,24.0,0.,24.0
1979-08-07 19:08:18.370 ,4,1,0.,24.0,0.,24.0
1979-08-07 19:08:42.370 ,4,0,0.,24.0,0.,24.0
1979-08-07 19:09:06.370 ,3,1,0.,24.0,0.,24.0
1979-08-07 19:09:30.370 ,3,0,0.,24.0,0.,24.0
1979-08-07 19:09:54.370 ,2,1,0.,24.0,0.,24.0
1979-08-07 19:10:18.370 ,2,0,0.,24.0,0.,24.0
1979-08-07 19:11:30.370 ,0,0,0.,24.0,0.,24.0
1979-08-07 19:11:54.370 ,0,0,0.,24.0,0.,24.0
1979-08-07 19:12:18.370 ,0,1,0.,24.0,0.,24.0
1979-08-07 19:12:42.370 ,0,0,0.,24.0,0.,24.0
1979-08-07 19:13:54.370 ,0,0,0.,24.0,0.,24.0
1979-08-07 19:14:18.370 ,0,0,0.,24.0,0.,24.0
1979-08-07 19:14:42.370 ,3,1,0.,24.0,0.,24.0
1979-08-07 19:15:06.370 ,3,0,0.,24.0,0.,24.0
1979-08-07 19:15:30.370 ,4,1,0.,24.0,0.,24.0
1979-08-07 19:15:54.370 ,4,0,0.,24.0,0.,24.0
1979-08-07 19:16:18.370 ,5,1,0.,24.0,0.,24.0
1979-08-07 19:16:42.370 ,5,0,0.,24.0,0.,24.0
1979-08-07 19:17:06.370 ,6,1,0.,24.0,0.,24.0
1979-08-07 19:17:30.370 ,6,0,0.,24.0,0.,24.0
1979-08-07 19:17:54.370 ,7,1,0.,24.0,0.,24.0
1979-08-07 19:18:18.370 ,7,0,0.,24.0,0.,24.0
1979-08-07 19:18:42.370 ,7,1,0.,24.0,0.,24.0
1979-08-07 19:19:06.370 ,7,0,0.,24.0,0.,24.0
1979-08-07 19:19:30.370 ,6,1,0.,24.0,0.,24.0
1979-08-07 19:19:54.370 ,6,0,0.,24.0,0.,24.0
1979-08-07 19:20:18.370 ,5,1,0.,24.0,0.,24.0
1979-08-07 19:20:42.370 ,5,0,0.,24.0,0.,24.0
1979-08-07 19:21:54.370 ,0,0,0.,24.0,0.,24.0
1979-08-07 19:22:18.370 ,0,0,0.,24.0,0.,24.0
1979-08-07 19:22:42.370 ,2,1,0.,24.0,0.,24.0
1979-08-07 19:23:06.370 ,2,0,0.,24.0,0.,24.0
1979-08-07 19:25:06.370 ,0,0,0.,24.0,0.,24.0
1979-08-07 19:25:30.370 ,0,0,0.,24.0,7936.,24.0
1979-08-07 19:25:30.370 ,0,0,0.,24.0,0.,24.0
1979-08-07 19:25:30.370 ,0,0,0.,24.0,0.,24.0
1979-08-07 19:25:54.370 ,1,1,0.,24.0,0.,24.0
1979-08-07 19:26:18.370 ,1,0,0.,24.0,0.,24.0
1979-08-07 19:26:42.370 ,2,1,0.,24.0,0.,24.0
1979-08-07 19:27:06.370 ,2,0,0.,24.0,0.,24.0
1979-08-07 19:27:30.370 ,3,1,0.,24.0,0.,24.0
1979-08-07 19:27:54.370 ,3,0,0.,24.0,0.,24.0
1979-08-07 19:28:18.370 ,4,1,0.,24.0,0.,24.0
1979-08-07 19:28:42.370 ,4,0,0.,24.0,0.,24.0
1979-08-07 19:29:06.370 ,5,1,0.,24.0,0.,24.0
1979-08-07 19:29:30.370 ,5,0,0.,24.0,0.,24.0
1979-08-07 19:31:30.370 ,0,0,0.,24.0,0.,24.0
1979-08-07 19:31:54.370 ,0,1,0.,24.0,0.,24.0
1979-08-07 19:32:18.370 ,4,1,0.,24.0,0.,24.0
1979-08-07 19:32:42.370 ,7,1,0.,24.0,0.,24.0
1979-08-07 19:33:06.370 ,3,1,0.,24.0,0.,24.0
1979-08-07 19:33:30.370 ,0,1,0.,24.0,0.,24.0
1979-08-07 19:33:54.370 ,4,1,0.,24.0,0.,24.0
1979-08-07 19:34:18.370 ,7,1,0.,24.0,0.,24.0
1979-08-07 19:34:42.370 ,3,1,0.,24.0,0.,24.0
1979-08-07 19:35:06.370 ,0,1,0.,24.0,0.,24.0
1979-08-07 19:35:30.370 ,4,1,0.,24.0,0.,24.0
1979-08-07 19:35:54.370 ,7,1,0.,24.0,0.,24.0
1979-08-07 19:36:18.370 ,3,1,0.,24.0,0.,24.0
1979-08-07 19:36:42.370 ,0,1,0.,24.0,0.,24.0
1979-08-07 19:37:06.370 ,4,1,0.,24.0,0.,24.0
1979-08-07 19:37:30.370 ,7,1,0.,24.0,0.,24.0
1979-08-07 19:37:54.370 ,3,1,0.,24.0,0.,24.0
1979-08-07 19:38:18.370 ,0,1,0.,24.0,0.,24.0
1979-08-07 19:38:42.370 ,4,1,0.,24.0,0.,24.0
1979-08-07 19:39:06.370 ,7,1,0.,24.0,0.,24.0
1979-08-07 19:39:30.370 ,3,1,0.,24.0,0.,24.0
1979-08-07 19:39:54.370 ,0,1,0.,24.0,0.,24.0
1979-08-07 19:40:18.370 ,4,1,0.,24.0,0.,24.0
1979-08-07 19:40:42.370 ,7,1,0.,24.0,0.,24.0
1979-08-07 19:41:06.370 ,3,1,0.,24.0,0.,24.0
1979-08-07 19:41:30.370 ,0,1,0.,24.0,0.,24.0
1979-08-07 19:41:54.370 ,0,0,0.,24.0,0.,24.0
1979-08-07 19:42:18.370 ,0,0,0.,24.0,0.,24.0
1979-08-07 19:42:42.370 ,5,1,0.,24.0,0.,24.0
1979-08-07 19:43:06.370 ,5,0,0.,24.0,0.,24.0
1979-08-07 19:43:30.370 ,4,1,0.,24.0,0.,24.0
1979-08-07 19:43:54.370 ,4,0,0.,24.0,0.,24.0
1979-08-07 19:44:18.370 ,3,1,0.,24.0,0.,24.0
1979-08-07 19:44:42.370 ,3,0,0.,24.0,0.,24.0
1979-08-07 19:45:06.370 ,2,1,1.,24.0,0.,24.0
1979-08-07 19:45:30.370 ,2,0,0.,24.0,0.,24.0
1979-08-07 19:45:54.370 ,1,1,0.,24.0,0.,24.0
1979-08-07 19:46:18.370 ,1,0,0.,24.0,0.,24.0
1979-08-07 19:46:42.370 ,0,1,0.,24.0,0.,24.0
1979-08-07 19:47:06.370 ,0,0,0.,24.0,0.,24.0
1979-08-07 19:47:30.370 ,0,1,0.,24.0,0.,24.0
1979-08-07 19:47:54.370 ,0,0,0.,24.0,0.,24.0
1979-08-07 19:48:18.370 ,1,1,0.,24.0,0.,24.0
1979-08-07 19:48:42.370 ,1,0,0.,24.0,0.,24.0
1979-08-07 19:49:06.370 ,2,1,0.,24.0,0.,24.0
1979-08-07 19:49:30.370 ,2,0,0.,24.0,0.,24.0
1979-08-07 19:49:54.370 ,3,1,0.,24.0,0.,24.0
1979-08-07 19:50:18.370 ,3,0,0.,24.0,0.,24.0
1979-08-07 19:50:42.370 ,4,1,0.,24.0,0.,24.0
1979-08-07 19:51:06.370 ,4,0,0.,24.0,0.,24.0
1979-08-07 19:51:30.370 ,5,1,0.,24.0,0.,24.0
1979-08-07 19:51:54.370 ,5,0,0.,24.0,0.,24.0
1979-08-07 19:52:18.370 ,6,1,0.,24.0,0.,24.0
1979-08-07 19:52:42.370 ,6,0,0.,24.0,0.,24.0
1979-08-07 19:53:06.370 ,7,1,0.,24.0,0.,24.0
1979-08-07 19:53:30.370 ,7,0,0.,24.0,0.,24.0
1979-08-07 19:53:54.370 ,7,1,0.,24.0,0.,24.0
1979-08-07 19:54:18.370 ,7,0,0.,24.0,0.,24.0
1979-08-07 19:54:42.370 ,6,1,0.,24.0,0.,24.0
1979-08-07 19:55:06.370 ,6,0,0.,24.0,0.,24.0
1979-08-07 19:55:30.370 ,5,1,0.,24.0,0.,24.0
1979-08-07 19:55:54.370 ,5,0,0.,24.0,0.,24.0
1979-08-07 19:56:18.370 ,4,1,0.,24.0,0.,24.0
1979-08-07 19:56:42.370 ,4,0,0.,24.0,0.,24.0
1979-08-07 19:57:06.370 ,3,1,0.,24.0,0.,24.0
1979-08-07 19:57:30.370 ,3,0,0.,24.0,0.,24.0
1979-08-07 19:57:54.370 ,2,1,0.,24.0,0.,24.0
1979-08-07 19:58:18.370 ,2,0,0.,24.0,0.,24.0
1979-08-07 19:58:42.370 ,1,1,0.,24.0,0.,24.0
1979-08-07 19:59:06.370 ,1,0,0.,24.0,0.,24.0
1979-08-07 19:59:30.370 ,0,1,0.,24.0,0.,24.0
1979-08-07 19:59:54.370 ,0,0,0.,24.0,0.,24.0
1979-08-07 20:00:18.370 ,0,1,0.,24.0,0.,24.0
1979-08-07 20:00:42.370 ,0,0,0.,24.0,0.,24.0
1979-08-07 20:01:06.370 ,1,1,0.,24.0,0.,24.0
1979-08-07 20:01:30.370 ,1,0,0.,24.0,0.,24.0
1979-08-07 20:01:54.370 ,2,1,0.,24.0,0.,24.0
1979-08-07 20:02:18.370 ,2,0,0.,24.0,0.,24.0
1979-08-07 20:02:42.370 ,3,1,0.,24.0,0.,24.0
1979-08-07 20:03:06.370 ,3,0,0.,24.0,0.,24.0
1979-08-07 20:03:30.370 ,4,1,0.,24.0,0.,24.0
1979-08-07 20:03:54.370 ,4,0,0.,24.0,0.,24.0
1979-08-07 20:04:18.370 ,5,1,0.,24.0,0.,24.0
1979-08-07 20:04:42.370 ,5,0,0.,24.0,0.,24.0
1979-08-07 20:05:06.370 ,6,1,0.,24.0,0.,24.0
1979-08-07 20:05:30.370 ,6,0,0.,24.0,0.,24.0
1979-08-07 20:05:54.370 ,7,1,0.,24.0,0.,24.0
1979-08-07 20:06:18.370 ,7,0,0.,24.0,0.,24.0
1979-08-07 20:06:42.370 ,7,1,0.,24.0,0.,24.0
1979-08-07 20:07:06.370 ,7,0,0.,24.0,0.,24.0
1979-08-07 20:07:30.370 ,6,1,0.,24.0,0.,24.0
1979-08-07 20:07:54.370 ,6,0,0.,24.0,0.,24.0
1979-08-07 20:08:18.370 ,5,1,0.,24.0,0.,24.0
1979-08-07 20:08:42.370 ,5,0,0.,24.0,0.,24.0
1979-08-07 20:09:06.370 ,4,1,0.,24.0,0.,24.0
1979-08-07 20:09:30.370 ,4,0,0.,24.0,0.,24.0
1979-08-07 20:09:54.370 ,3,1,0.,24.0,0.,24.0
1979-08-07 20:10:18.370 ,3,0,0.,24.0,0.,24.0
1979-08-07 20:10:42.370 ,2,1,0.,24.0,0.,24.0
1979-08-07 20:11:06.370 ,2,0,0.,24.0,0.,24.0
1979-08-07 20:11:30.370 ,1,1,0.,24.0,0.,24.0
1979-08-07 20:11:54.370 ,1,0,0.,24.0,0.,24.0
1979-08-07 20:12:18.370 ,0,1,0.,24.0,0.,24.0
1979-08-07 20:12:42.370 ,0,0,0.,24.0,0.,24.0
1979-08-07 20:13:06.370 ,0,1,0.,24.0,0.,24.0
1979-08-07 20:13:30.370 ,0,0,0.,24.0,0.,24.0
1979-08-07 20:13:54.370 ,1,1,0.,24.0,0.,24.0
1979-08-07 20:14:18.370 ,1,0,0.,24.0,0.,24.0
1979-08-07 20:14:42.370 ,2,1,0.,24.0,0.,24.0
1979-08-07 20:15:06.370 ,2,0,0.,24.0,0.,24.0
1979-08-07 20:15:30.370 ,3,1,0.,24.0,0.,24.0
1979-08-07 20:15:54.370 ,3,0,0.,24.0,0.,24.0
1979-08-07 20:16:18.370 ,4,1,0.,24.0,0.,24.0
1979-08-07 20:16:42.370 ,4,0,0.,24.0,0.,24.0
1979-08-07 20:17:06.370 ,5,1,0.,24.0,0.,24.0
1979-08-07 20:17:30.370 ,5,0,0.,24.0,0.,24.0
1979-08-07 20:17:54.370 ,6,1,0.,24.0,0.,24.0
1979-08-07 20:18:18.370 ,6,0,0.,24.0,0.,24.0
1979-08-07 20:18:42.370 ,7,0,0.,24.0,0.,24.0
1979-08-07 20:19:06.370 ,7,0,0.,24.0,0.,24.0
1979-08-07 20:19:30.370 ,3,1,0.,24.0,0.,24.0
1979-08-07 20:19:54.370 ,0,1,0.,24.0,0.,24.0
1979-08-07 20:20:18.370 ,4,1,0.,24.0,0.,24.0
1979-08-07 20:20:42.370 ,7,1,0.,24.0,0.,24.0
1979-08-07 20:21:06.370 ,3,1,0.,24.0,0.,24.0
1979-08-07 20:21:30.370 ,0,1,0.,24.0,0.,24.0
1979-08-07 20:21:54.370 ,4,1,0.,24.0,0.,24.0
1979-08-07 20:22:18.370 ,7,1,0.,24.0,0.,24.0
1979-08-07 20:22:42.370 ,3,1,0.,24.0,0.,24.0
1979-08-07 20:23:06.370 ,0,1,0.,24.0,0.,24.0
1979-08-07 20:23:30.370 ,4,1,0.,24.0,0.,24.0
1979-08-07 20:23:54.370 ,7,1,0.,24.0,0.,24.0
1979-08-07 20:24:18.370 ,3,1,0.,24.0,0.,24.0
1979-08-07 20:24:42.370 ,0,1,0.,24.0,0.,24.0
1979-08-07 20:25:06.370 ,4,1,0.,24.0,0.,24.0
1979-08-07 20:25:30.370 ,7,1,0.,24.0,0.,24.0
1979-08-07 20:25:54.370 ,3,1,0.,24.0,0.,24.0
1979-08-07 20:26:18.370 ,0,1,0.,24.0,0.,24.0
1979-08-07 20:26:42.370 ,4,1,0.,24.0,0.,24.0
1979-08-07 20:27:06.370 ,7,1,0.,24.0,0.,24.0
1979-08-07 20:27:30.370 ,3,1,0.,24.0,0.,24.0
1979-08-07 20:27:54.370 ,0,1,0.,24.0,0.,24.0
1979-08-07 20:28:18.370 ,4,1,0.,24.0,0.,24.0
1979-08-07 20:28:42.370 ,7,1,0.,24.0,0.,24.0
1979-08-07 20:29:06.370 ,3,1,0.,24.0,0.,24.0
1979-08-07 20:29:30.370 ,0,1,0.,24.0,0.,24.0
1979-08-07 20:29:54.370 ,0,0,0.,24.0,0.,24.0
1979-08-07 20:30:18.370 ,0,0,0.,24.0,0.,24.0
1979-08-07 20:30:42.370 ,5,1,0.,24.0,0.,24.0
1979-08-07 20:31:06.370 ,5,0,0.,24.0,0.,24.0
1979-08-07 20:31:30.370 ,4,1,0.,24.0,0.,24.0
1979-08-07 20:31:54.370 ,4,0,0.,24.0,0.,24.0
1979-08-07 20:32:18.370 ,3,1,0.,24.0,0.,24.0
1979-08-07 20:32:42.370 ,3,0,0.,24.0,0.,24.0
1979-08-07 20:33:06.370 ,2,1,0.,24.0,0.,24.0
1979-08-07 20:33:30.370 ,2,0,0.,24.0,0.,24.0
1979-08-07 20:33:54.370 ,1,1,0.,24.0,0.,24.0
1979-08-07 20:34:18.370 ,1,0,0.,24.0,0.,24.0
1979-08-07 20:34:42.370 ,0,1,0.,24.0,0.,24.0
1979-08-07 20:35:06.370 ,0,0,0.,24.0,0.,24.0
1979-08-07 20:35:30.370 ,0,1,0.,24.0,0.,24.0
1979-08-07 20:35:54.370 ,0,0,0.,24.0,0.,24.0
1979-08-07 20:36:18.370 ,1,1,0.,24.0,0.,24.0
1979-08-07 20:36:42.370 ,1,0,0.,24.0,0.,24.0
1979-08-07 20:37:06.370 ,2,1,0.,24.0,0.,24.0
1979-08-07 20:37:30.370 ,2,0,0.,24.0,0.,24.0
1979-08-07 20:37:54.370 ,3,1,0.,24.0,0.,24.0
1979-08-07 20:38:18.370 ,3,0,0.,24.0,0.,24.0
1979-08-07 20:38:42.370 ,4,1,0.,24.0,0.,24.0
1979-08-07 20:39:06.370 ,4,0,0.,24.0,0.,24.0
1979-08-07 20:39:30.370 ,5,1,0.,24.0,0.,24.0
1979-08-07 20:39:54.370 ,5,0,0.,24.0,0.,24.0
1979-08-07 20:40:18.370 ,6,1,0.,24.0,0.,24.0
1979-08-07 20:40:42.370 ,6,0,0.,24.0,0.,24.0
1979-08-07 20:41:06.370 ,7,1,0.,24.0,0.,24.0
1979-08-07 20:41:30.370 ,7,0,0.,24.0,0.,24.0
1979-08-07 20:41:54.370 ,7,1,0.,24.0,0.,24.0
1979-08-07 20:42:18.370 ,7,0,0.,24.0,0.,24.0
1979-08-07 20:42:42.370 ,6,1,0.,24.0,0.,24.0
1979-08-07 20:43:06.370 ,6,0,0.,24.0,0.,24.0
1979-08-07 20:43:30.370 ,5,1,0.,24.0,0.,24.0
1979-08-07 20:43:54.370 ,5,0,0.,24.0,0.,24.0
1979-08-07 20:44:18.370 ,4,1,0.,24.0,0.,24.0
1979-08-07 20:44:42.370 ,4,0,0.,24.0,0.,24.0
1979-08-07 20:45:06.370 ,3,1,0.,24.0,0.,24.0
1979-08-07 20:45:30.370 ,3,0,0.,24.0,0.,24.0
1979-08-07 20:45:54.370 ,2,1,0.,24.0,0.,24.0
1979-08-07 20:46:18.370 ,2,0,0.,24.0,0.,24.0
1979-08-07 20:46:42.370 ,1,1,0.,24.0,0.,24.0
1979-08-07 20:47:06.370 ,1,0,0.,24.0,0.,24.0
1979-08-07 20:47:30.370 ,0,1,0.,24.0,0.,24.0
1979-08-07 20:47:54.370 ,0,0,0.,24.0,0.,24.0
1979-08-07 20:48:18.370 ,0,1,0.,24.0,0.,24.0
1979-08-07 20:48:42.370 ,0,0,0.,24.0,0.,24.0
1979-08-07 20:49:06.370 ,1,1,0.,24.0,0.,24.0
1979-08-07 20:49:30.370 ,1,0,0.,24.0,0.,24.0
1979-08-07 20:49:54.370 ,2,1,0.,24.0,0.,24.0
1979-08-07 20:50:18.370 ,2,0,0.,24.0,0.,24.0
1979-08-07 20:50:42.370 ,3,1,0.,24.0,0.,24.0
1979-08-07 20:51:06.370 ,3,0,0.,24.0,0.,24.0
1979-08-07 20:51:30.370 ,4,1,0.,24.0,0.,24.0
1979-08-07 20:51:54.370 ,4,0,0.,24.0,0.,24.0
1979-08-07 20:52:18.370 ,5,1,0.,24.0,0.,24.0
1979-08-07 20:52:42.370 ,5,0,0.,24.0,0.,24.0
1979-08-07 20:53:06.370 ,6,1,0.,24.0,0.,24.0
1979-08-07 20:53:30.370 ,6,0,0.,24.0,0.,24.0
1979-08-07 20:53:54.370 ,7,1,0.,24.0,0.,24.0
1979-08-07 20:54:18.370 ,7,0,0.,24.0,0.,24.0
1979-08-07 20:54:42.370 ,7,1,0.,24.0,0.,24.0
1979-08-07 20:55:06.370 ,7,0,0.,24.0,0.,24.0
1979-08-07 20:55:30.370 ,6,1,0.,24.0,0.,24.0
1979-08-07 20:55:54.370 ,6,0,0.,24.0,0.,24.0
1979-08-07 20:56:18.370 ,5,1,0.,24.0,0.,24.0
1979-08-07 20:56:42.370 ,5,0,0.,24.0,0.,24.0
1979-08-07 20:57:06.370 ,4,1,0.,24.0,0.,24.0
1979-08-07 20:57:30.370 ,4,0,0.,24.0,0.,24.0
1979-08-07 20:57:54.370 ,3,1,0.,24.0,0.,24.0
1979-08-07 20:58:18.370 ,3,0,0.,24.0,0.,24.0
1979-08-07 20:58:42.370 ,2,1,0.,24.0,0.,24.0
1979-08-07 20:59:06.370 ,2,0,0.,24.0,0.,24.0
1979-08-07 20:59:30.360 ,1,1,0.,24.0,0.,24.0
1979-08-07 20:59:54.360 ,1,0,0.,24.0,0.,24.0
1979-08-07 21:00:18.370 ,0,1,0.,24.0,0.,24.0
